Location: Niles Junction
(37.5763°N, 121.9714°W)
Time: 03:24:57
(UTC+00:00)

Cosmos 2292 Rocket - Pass Details

Date: 29 October 2020
Orbit: 381 x 1451 km, 83.0° (Epoch: 23 November)

Event Time Altitude Azimuth Distance (km) Brightness Sun altitude
Rises 13:46:46 0° 186° (S) 2,259 6.5 -9.3°
Reaches altitude 10° 13:48:36 10° 187° (S) 1,446 5.5 -8.9°
Maximum altitude 13:51:39 87° 277° (W) 445 2.8 -8.3°
Drops below altitude 10° 13:55:19 10° 6° (N) 1,733 5.8 -7.6°
Sets 13:57:42 0° 7° (N) 2,772 6.9 -7.1°
